• In Netherlands
  • List of Countries
  • For 7 days
  • Water Temperature
  • Satellite Maps
  • Weather Map
  • Weather Widgets
  • user-avatar
    Login

    Hourly Weather Kaprun

    Today, 22 July, Saturday

    Time Temperature Precipitation Wind Pressure Humidity
    00:00 +9°C° 0 mm 2 mps 598 mmHg 86%
    01:00 +9°C° 0 mm 3 mps 598 mmHg 83%
    02:00 +8°C° 0 mm 2 mps 598 mmHg 83%
    03:00 +8°C° 0 mm 2 mps 598 mmHg 83%
    04:00 +7°C° 0 mm 2 mps 597 mmHg 84%
    05:00 +10°C° 0 mm 1 mps 598 mmHg 81%
    06:00 +11°C° 0 mm 1 mps 599 mmHg 78%
    07:00 +12°C° 0 mm 1 mps 600 mmHg 76%
    08:00 +14°C° 0.1 mm 1 mps 601 mmHg 72%
    09:00 +15°C° 0.1 mm 1 mps 601 mmHg 67%
    10:00 +16°C° 0.1 mm 1 mps 602 mmHg 63%
    11:00 +16°C° 0.6 mm 1 mps 602 mmHg 65%
    12:00 +16°C° 0.6 mm 1 mps 602 mmHg 67%
    13:00 +16°C° 0 mm 1 mps 602 mmHg 71%
    14:00 +16°C° 0.6 mm 1 mps 602 mmHg 71%
    15:00 +16°C° 0.6 mm 1 mps 602 mmHg 71%
    16:00 +18°C° 0.6 mm 1 mps 602 mmHg 72%
    17:00 +16°C° 0.9 mm 1 mps 601 mmHg 77%
    18:00 +14°C° 0.9 mm 0 mps 601 mmHg 83%
    19:00 +13°C° 0.9 mm 0 mps 601 mmHg 89%
    20:00 +11°C° 0.4 mm 0 mps 600 mmHg 90%
    21:00 +11°C° 0.4 mm 1 mps 600 mmHg 92%
    22:00 +10°C° 0.4 mm 1 mps 600 mmHg 94%
    23:00 +10°C° 0.5 mm 1 mps 600 mmHg 94%

    Tomorrow, 23 July, Sunday

    Time Temperature Precipitation Wind Pressure Humidity
    00:00 +9°C° 0.5 mm 1 mps 599 mmHg 94%
    01:00 +9°C° 0.5 mm 1 mps 599 mmHg 94%
    02:00 +9°C° 0.1 mm 1 mps 599 mmHg 94%
    03:00 +9°C° 0.1 mm 1 mps 599 mmHg 94%
    04:00 +9°C° 0.1 mm 1 mps 599 mmHg 94%
    05:00 +10°C° 0 mm 1 mps 600 mmHg 91%
    06:00 +11°C° 0 mm 1 mps 600 mmHg 88%
    07:00 +12°C° 0 mm 1 mps 601 mmHg 85%
    08:00 +14°C° 0.1 mm 1 mps 602 mmHg 76%
    09:00 +16°C° 0.1 mm 1 mps 602 mmHg 67%
    10:00 +18°C° 0.1 mm 1 mps 603 mmHg 58%
    11:00 +16°C° 0.6 mm 1 mps 603 mmHg 65%
    12:00 +16°C° 0.6 mm 1 mps 602 mmHg 72%
    13:00 +15°C° 0.6 mm 1 mps 602 mmHg 79%
    14:00 +14°C° 1 mm 1 mps 601 mmHg 83%
    15:00 +14°C° 1 mm 1 mps 601 mmHg 87%
    16:00 +13°C° 1 mm 1 mps 601 mmHg 91%
    17:00 +12°C° 0.9 mm 1 mps 600 mmHg 93%
    18:00 +12°C° 0.9 mm 1 mps 600 mmHg 95%
    19:00 +11°C° 0.9 mm 1 mps 600 mmHg 97%
    20:00 +11°C° 0.6 mm 1 mps 600 mmHg 97%
    21:00 +10°C° 0.6 mm 1 mps 600 mmHg 98%
    22:00 +10°C° 0.6 mm 1 mps 600 mmHg 98%
    23:00 +10°C° 0.2 mm 1 mps 599 mmHg 98%

    Day after tomorrow, 24 July, Monday

    Time Temperature Precipitation Wind Pressure Humidity
    00:00 +10°C° 0.2 mm 1 mps 599 mmHg 98%
    01:00 +9°C° 0.2 mm 1 mps 599 mmHg 98%
    02:00 +9°C° 0.7 mm 1 mps 598 mmHg 98%
    03:00 +9°C° 0.7 mm 1 mps 598 mmHg 98%
    04:00 +9°C° 0.7 mm 1 mps 597 mmHg 98%
    05:00 +8°C° 1.4 mm 0 mps 597 mmHg 97%
    06:00 +9°C° 1.4 mm 0 mps 597 mmHg 96%
    07:00 +9°C° 1.4 mm 0 mps 597 mmHg 96%
    08:00 +11°C° 1.1 mm 1 mps 597 mmHg 93%
    09:00 +12°C° 1.1 mm 1 mps 597 mmHg 90%
    10:00 +12°C° 1.1 mm 1 mps 597 mmHg 88%
    11:00 +12°C° 1.3 mm 1 mps 596 mmHg 89%
    12:00 +12°C° 1.3 mm 1 mps 596 mmHg 89%
    13:00 +12°C° 1.3 mm 1 mps 595 mmHg 90%
    14:00 +11°C° 2.1 mm 1 mps 595 mmHg 93%
    15:00 +10°C° 2.1 mm 1 mps 594 mmHg 95%
    16:00 +9°C° 2.1 mm 1 mps 594 mmHg 97%
    17:00 +7°C° 4.1 mm 2 mps 594 mmHg 97%
    18:00 +7°C° 4.1 mm 2 mps 593 mmHg 98%
    19:00 +6°C° 4.1 mm 2 mps 593 mmHg 98%
    20:00 +5°C° 1.6 mm 2 mps 593 mmHg 98%
    21:00 +5°C° 1.6 mm 2 mps 593 mmHg 97%
    22:00 +4°C° 1.6 mm 3 mps 593 mmHg 97%
    23:00 +3°C° 0.4 mm 3 mps 593 mmHg 97%

    25 July, Tuesday

    Time Temperature Precipitation Wind Pressure Humidity
    00:00 +3°C° 0.4 mm 3 mps 593 mmHg 96%
    01:00 +3°C° 0.4 mm 3 mps 593 mmHg 96%
    02:00 +3°C° 0 mm 2 mps 592 mmHg 96%
    03:00 +3°C° 0 mm 2 mps 592 mmHg 95%
    04:00 +2°C° 0 mm 2 mps 591 mmHg 94%
    05:00 +3°C° 0 mm 2 mps 592 mmHg 92%
    06:00 +4°C° 0 mm 2 mps 592 mmHg 89%
    07:00 +4°C° 0 mm 2 mps 592 mmHg 87%
    08:00 +5°C° 0.1 mm 2 mps 592 mmHg 81%
    09:00 +6°C° 0.1 mm 2 mps 593 mmHg 75%
    10:00 +8°C° 0.1 mm 2 mps 593 mmHg 69%
    11:00 +8°C° 0.1 mm 2 mps 593 mmHg 67%
    12:00 +9°C° 0.1 mm 2 mps 594 mmHg 64%
    13:00 +10°C° 0.1 mm 2 mps 594 mmHg 61%
    14:00 +10°C° 0.2 mm 2 mps 594 mmHg 63%
    15:00 +9°C° 0.2 mm 2 mps 594 mmHg 66%
    16:00 +9°C° 0.2 mm 2 mps 593 mmHg 68%
    17:00 +8°C° 0.3 mm 2 mps 593 mmHg 75%
    18:00 +7°C° 0.3 mm 2 mps 593 mmHg 81%
    19:00 +6°C° 0.3 mm 2 mps 593 mmHg 87%
    20:00 +6°C° 0.2 mm 1 mps 592 mmHg 90%
    21:00 +5°C° 0.2 mm 1 mps 592 mmHg 93%
    22:00 +4°C° 0.2 mm 1 mps 592 mmHg 96%
    23:00 +4°C° 0.2 mm 1 mps 592 mmHg 96%

    26 July, Wednesday

    Time Temperature Precipitation Wind Pressure Humidity
    00:00 +3°C° 0.2 mm 1 mps 591 mmHg 96%
    01:00 +3°C° 0.2 mm 1 mps 591 mmHg 96%
    02:00 +3°C° 0.2 mm 1 mps 591 mmHg 96%
    03:00 +3°C° 0.2 mm 1 mps 591 mmHg 95%
    04:00 +3°C° 0.2 mm 1 mps 591 mmHg 95%
    05:00 +4°C° 0.1 mm 1 mps 591 mmHg 92%
    06:00 +5°C° 0.1 mm 1 mps 592 mmHg 88%
    07:00 +6°C° 0.1 mm 1 mps 592 mmHg 85%
    08:00 +7°C° 0 mm 1 mps 593 mmHg 79%
    09:00 +7°C° 0 mm 2 mps 593 mmHg 72%
    10:00 +9°C° 0 mm 2 mps 594 mmHg 65%
    11:00 +10°C° 0.2 mm 2 mps 594 mmHg 62%
    12:00 +10°C° 0.2 mm 2 mps 595 mmHg 59%
    13:00 +12°C° 0.2 mm 2 mps 595 mmHg 56%
    14:00 +12°C° 0.3 mm 2 mps 595 mmHg 60%
    15:00 +11°C° 0.3 mm 3 mps 595 mmHg 63%
    16:00 +10°C° 0.3 mm 3 mps 595 mmHg 67%
    17:00 +9°C° 0.3 mm 2 mps 595 mmHg 74%
    18:00 +8°C° 0.3 mm 2 mps 594 mmHg 81%
    19:00 +7°C° 0.3 mm 2 mps 594 mmHg 89%
    20:00 +6°C° 0.4 mm 2 mps 594 mmHg 91%
    21:00 +5°C° 0.4 mm 2 mps 595 mmHg 94%
    22:00 +4°C° 0.4 mm 2 mps 595 mmHg 96%
    23:00 +4°C° 0.8 mm 2 mps 595 mmHg 96%

    27 July, Thursday

    Time Temperature Precipitation Wind Pressure Humidity
    00:00 +4°C° 0.8 mm 2 mps 595 mmHg 96%
    01:00 +4°C° 0.8 mm 2 mps 595 mmHg 96%
    02:00 +4°C° 1.3 mm 2 mps 595 mmHg 96%
    03:00 +4°C° 1.3 mm 2 mps 595 mmHg 97%
    04:00 +4°C° 1.3 mm 2 mps 595 mmHg 97%
    05:00 +4°C° 0.9 mm 2 mps 596 mmHg 96%
    06:00 +5°C° 0.9 mm 2 mps 596 mmHg 96%
    07:00 +5°C° 0.9 mm 2 mps 596 mmHg 96%
    08:00 +5°C° 0.5 mm 2 mps 597 mmHg 94%
    09:00 +6°C° 0.5 mm 2 mps 597 mmHg 92%
    10:00 +6°C° 0.5 mm 2 mps 598 mmHg 90%
    11:00 +9°C° 0 mm 2 mps 598 mmHg 80%
    12:00 +12°C° 0 mm 2 mps 599 mmHg 71%
    13:00 +14°C° 0 mm 2 mps 600 mmHg 61%
    14:00 +14°C° 0 mm 2 mps 600 mmHg 60%
    15:00 +15°C° 0 mm 2 mps 600 mmHg 58%
    16:00 +15°C° 0 mm 2 mps 600 mmHg 57%
    17:00 +13°C° 0 mm 2 mps 600 mmHg 65%
    18:00 +12°C° 0 mm 2 mps 600 mmHg 74%
    19:00 +11°C° 0 mm 1 mps 599 mmHg 82%
    20:00 +9°C° 0 mm 1 mps 599 mmHg 86%
    21:00 +8°C° 0 mm 1 mps 599 mmHg 91%
    22:00 +6°C° 0 mm 1 mps 598 mmHg 95%
    23:00 +6°C° 0 mm 1 mps 598 mmHg 94%
    Show more